Home > Weather > New York > Past weeks

Flag for USA Past Weather in New York, New York, USA — Yesterday and Last 2 Weeks

Now
79 °F

Passing clouds.


Feels Like: 80 °F
Forecast: 69 / 86 °F
Wind: 8 mph from South

Location: New York City - Central Park

Current Time: May 27, 2016 at 6:06:48 PM

Latest Report: May 27, 2016 at 4:51 PM


Visibility: 7 mi

Pressure: 30.01 "Hg

Humidity: 56%

Dew Point: 62 °F

Location of New YorkLocation

Past Weather in New York — Graph

°F

New York Temperature Yesterday

Maximum temperature yesterday: 89 °F (at 1:51 PM)
Minimum temperature yesterday: 70 °F (at 5:51 AM)
Average temperature yesterday: 79 °F

High & Low Weather Summary for the Past Weeks

 TemperatureHumidityPressure
High89 °F (May 26, 1:51 PM)100% (May 14, 12:52 AM)30.26 "Hg (May 14, 12:52 AM)
Low43 °F (May 16, 3:54 AM)20% (May 25, 2:51 PM)29.81 "Hg (May 22, 3:51 AM)
Average64 °F54%30.02 "Hg
* Reported May 12 4:51 PM — May 27 4:51 PM, New York, Weather by CustomWeather, © 2016

Note: Actual official high and low records may vary slightly from our data, if they occured in-between our weather recording intervals... More about our weather records

Advertising

New York Weather History for the Previous 24 Hours

Scroll right to see more
 ConditionsComfort  
Time TempWeatherWind HumidityBarometerVisibility
4:51 PM
Fri, May 27
79 °FPassing clouds.8 mph56%30.01 "Hg7 mi
3:51 PM79 °FPassing clouds.9 mph56%30.02 "Hg7 mi
2:51 PM82 °FSunny.6 mph53%30.03 "Hg6 mi
1:51 PM85 °FSunny.3 mph50%30.03 "Hg6 mi
12:51 PM86 °FSunny.5 mph48%30.04 "Hg6 mi
11:51 AM84 °FSunny.3 mph49%30.06 "Hg6 mi
10:51 AM82 °FSunny.6 mph51%30.05 "Hg6 mi
9:51 AM79 °FSunny.3 mph56%30.06 "Hg6 mi
8:51 AM76 °FSunny.No wind60%30.06 "Hg6 mi
7:51 AM75 °FSunny.No wind62%30.06 "Hg6 mi
6:51 AM75 °FSunny.No wind62%30.05 "Hg7 mi
5:51 AM74 °FClear.No wind57%30.06 "Hg7 mi
4:51 AM74 °FPassing clouds.3 mph56%30.05 "Hg9 mi
3:51 AM74 °FClear.3 mph53%30.06 "Hg9 mi
2:51 AM74 °FClear.3 mph50%30.05 "Hg9 mi
1:51 AM75 °FClear.5 mph48%30.05 "Hg9 mi
12:51 AM76 °FClear.3 mph43%30.04 "Hg9 mi
11:51 PM
Thu, May 26
76 °FClear.5 mph42%30.05 "Hg9 mi
10:51 PM76 °FClear.3 mph43%30.05 "Hg9 mi
9:51 PM76 °FClear.3 mph40%30.04 "Hg10 mi
8:51 PM78 °FSunny.6 mph36%30.03 "Hg10 mi
7:51 PM81 °FSunny.6 mph24%30.03 "Hg8 mi
6:51 PM83 °FSunny.7 mph26%30.03 "Hg8 mi
Weather by CustomWeather, © 2016

See weather overviewHow to use our weather pages